Regional Weather Roundup
Issued by NWS

Home | Current Version | Previous Version | Text Only | Print | Product List | Glossary Off
Versions: 1 2 3 4 5 6 7 8 9 10 11 12 13 14 15 16 17 18 19 20 21 22 23 24 25 26 27 28 29 30 31 32 33 34 35 36 37 38 39 40 41 42 43 44 45 46 47 48 49 50

000
ASUS43 KMPX 031010
RWRMN
WEATHER ROUNDUP FOR MINNESOTA
NATIONAL WEATHER SERVICE TWIN CITIES/CHANHASSEN MN
500 AM CDT THU SEP 03 2015


NOTE: "FAIR" INDICATES FEW OR NO CLOUDS BELOW 12,000 FEET WITH NO
SIGNIFICANT WEATHER AND/OR OBSTRUCTIONS TO VISIBILITY. N/A MEANS
CURRENT SKY AND/OR WEATHER CONDITIONS ARE NOT AVAILABLE.

MNZ060>063-068>070-031100-
   Twin Cities Metro

CITY           SKY/WX    TMP DP  RH WIND       PRES   REMARKS
TWIN CITIES    PTCLDY    67  65  93 E6        29.90S
ST PAUL        CLEAR     68  66  93 CALM      29.90S
CRYSTAL        PTCLDY    70  65  84 E5        29.88S
BLAINE         CLEAR     66  66 100 E6        29.90S FOG
LAKEVILLE      FOG       66  66 100 E3        29.90S VSB 1/4
EDEN PRAIRIE   CLOUDY    69  67  93 E6        29.89R FOG
SOUTH ST PAUL  CLEAR     67  65  93 CALM      29.90S
LAKE ELMO      FAIR      64  64 100 CALM      29.92S FOG
$$
MNZ001>005-007-008-013>017-022>024-027-028-031100-
   Northwest Minnesota

CITY           SKY/WX    TMP DP  RH WIND       PRES   REMARKS
BEMIDJI        CLOUDY    65  64  97 SE10      29.90S FOG
HALLOCK        CLEAR     68  64  88 SE9       29.79S
ROSEAU         CLEAR     66  61  82 SE8       29.85S
WARROAD        CLEAR     66  63  88 SE8       29.86F
THIEF RVR FALL CLEAR     64  64 100 SE10      29.83S
CROOKSTON      CLOUDY    70  66  88 SE14      29.80F
FOSSTON        CLOUDY    66  64  94 SE8       29.86S
DETROIT LAKES  CLOUDY    70  66  88 SE14G20   29.87S
MOORHEAD       CLOUDY    72  70  94 SE9       29.80F FOG
PARK RAPIDS    CLOUDY    69  65  86 SE7       29.90S
MAHNOMEN       CLOUDY    70  68  93 SE10      29.85S
$$
MNZ006-009>011-018-025>026-031100-
   North Central Minnesota

CITY           SKY/WX    TMP DP  RH WIND       PRES   REMARKS
BAUDETTE       CLEAR     63  62  97 SE9       29.89S
FLAG ISLAND    CLEAR     68  64  88 S17       29.86F
INTL FALLS     MOCLDY    60  60 100 SE6       29.94S FOG
WASKISH        CLEAR     63  61  94 E3        29.90S FOG
BIG FORK       CLOUDY    64  63  94 SE6       29.95S
LONGVILLE      CLOUDY    64  63  94 CALM      29.92S
GRAND RAPIDS     N/A     63  61  94 SE5       29.95S VSB 1/2
CRANE LAKE     CLEAR     52  52 100 CALM      29.98S
ORR            CLOUDY    59  55  88 SE3       29.94F VSB 3/4
COOK           CLOUDY    61  59  94 SE3       29.98S FOG
WALKER         CLOUDY    65  64  96 SE7       29.91S
$$
MNZ012-019>021-037-031100-
   Northeast Minnesota

CITY           SKY/WX    TMP DP  RH WIND       PRES   REMARKS
DULUTH         FOG       60  60 100 E8        29.97S VSB 1/4
ELY            FOG       55  55 100 CALM      29.98S VSB 1/4
HIBBING        CLOUDY    61  60  97 E7        29.97S FOG
EVELETH        FOG       61  61 100 CALM      29.99S VSB 3/4
DULUTH HARBOR  FOG       59  57  94 E3        29.97S VSB 1/2
TWO HARBORS    FOG       64  61  88 CALM      29.96S VSB 3/4
SILVER BAY     FOG       63  63 100 CALM      29.96S VSB 1/2
GRAND MARAIS     N/A     55  53  93 CALM      29.96F
G MARAIS ARPRT CLEAR     48  46  93 N5        30.01F FOG
$$
MNZ029>031-032-039>041-046>048-054>057-064-031100-
   West Central Minnesota

CITY           SKY/WX    TMP DP  RH WIND       PRES   REMARKS
FERGUS FALLS   CLOUDY    70  70 100 SE10G17   29.82F
WHEATON        CLOUDY    68  68 100 SE13      29.83R FOG
MORRIS         FOG       72  70  94 SE13      29.83S VSB 1/2
ALEXANDRIA     CLOUDY    67  67 100 SE13      29.89S FOG
ELBOW LAKE     CLOUDY    68  68 100 E10       29.84S FOG
WADENA         CLOUDY    68  64  88 E8        29.88S
GLENWOOD       FOG       66  66 100 E9        29.88F VSB 1/4
APPLETON       FOG       72  68  88 SE10      29.82F VSB 1/2
BENSON         FOG       70  66  88 SE7       29.85S VSB 3/4
ORTONVILLE     CLOUDY    70  68  94 SE8       29.82S VSB 1
MADISON        CLOUDY    70  68  94 SE7       29.82F FOG
WILLMAR        FOG       70  70 100 E8        29.87F VSB 1/4
$$
MNZ033>034-036-042>043-049>051-058-059-031100-
   Central Minnesota

CITY           SKY/WX    TMP DP  RH WIND       PRES   REMARKS
ST CLOUD       CLEAR     65  64  97 E5        29.90R
SAUK CENTRE    CLOUDY    67  65  96 E6        29.89S
PAYNESVILLE    CLOUDY    67  67  98 NE7       29.89S
AITKIN         CLOUDY    64  57  77 E6        29.92S
PINE RIVER     CLOUDY    64  64 100 SE6       29.95S
BRAINERD       CLOUDY    66  64  93 E5        29.92R
STAPLES        CLOUDY    66  64  94 E6        29.90S
LONG PRAIRIE   CLOUDY    66  64  94 E7        29.90S
LITTLE FALLS   CLOUDY    66  63  88 E5        29.91S
LITCHFIELD     FOG       70  70 100 E7        29.89S VSB 1/2
BUFFALO        CLEAR     66  64  92 NE5       29.89F
MAPLE LAKE     PTCLDY    67  66  96 E6        29.90S
$$
MNZ037-044-045-052-053-031100-
   East Central Minnesota

CITY           SKY/WX    TMP DP  RH WIND       PRES   REMARKS
PRINCETON      PTCLDY    66  64  94 CALM      29.91S
MORA           CLOUDY    61  61 100 CALM      29.94R FOG
CAMBRIDGE      CLEAR     66  59  77 CALM      29.90S
RUSH CITY      CLOUDY    64  62  96 NE5       29.92S
MOOSE LAKE     FOG       59  59 100 CALM      29.94R VSB 1
HINCKLEY       CLOUDY    63  63 100 NE6       29.93S FOG
CLOQUET        FOG       61  59  94 E6        29.96F VSB 1/2
MCGREGOR       CLOUDY    63  61  94 E5        29.95S
$$
MNZ071>073-080-081-089-090-097-098-031100-
   Southwest Minnesota

CITY           SKY/WX    TMP DP  RH WIND       PRES   REMARKS
MONTEVIDEO     FOG       70  70 100 SE7       29.86S VSB 1/4
GRANITE FALLS  FOG       69  69  99 E6        29.86S VSB 1/2
CANBY          FOG       67  65  95 SE5       29.84S VSB 1
MARSHALL       CLEAR     68  64  88 SE6       29.85S
REDWOOD FALLS  FOG       70  69  97 E5        29.85S VSB 1/2
OLIVIA         FOG       68  64  88 E6        29.86S VSB 1/2
PIPESTONE      CLEAR     70  68  94 SE7       29.85S FOG
WINDOM         CLEAR     70  66  88 CALM      29.87S
WORTHINGTON    CLEAR     66  63  88 SE6       29.87S
JACKSON        CLEAR     68  68 100 S7        29.88S FOG
TRACY          CLEAR     71  69  96 S10       29.85S
SLAYTON        FOG       66  66 100 CALM      29.88S VSB 1/4
$$
MNZ065>067-074>077-082>085-091>093-031100-
   South Central Minnesota

CITY           SKY/WX    TMP DP  RH WIND       PRES   REMARKS
MANKATO        CLEAR     70  66  88 SE6       29.88R
NEW ULM        CLEAR     70  70 100 E3        29.86S FOG
ST JAMES       CLEAR     68  66  94 SE3       29.87S
FAIRMONT       CLEAR     68  63  83 S7        29.87S
GLENCOE        FOG       69  70 100 E7        29.88S VSB 1/4
FARIBAULT      FOG       64  64 100 CALM      29.90S VSB 1/4
OWATONNA       CLEAR     66  64  94 E5        29.90S FOG
WASECA         CLEAR     64  63  94 E5        29.90S FOG
ALBERT LEA     CLEAR     70  68  94 CALM      29.90S FOG
$$
MNZ078>079-086>088-094>096-031100-
   Southeast Minnesota

CITY           SKY/WX    TMP DP  RH WIND       PRES   REMARKS
ROCHESTER      CLEAR     65  64  97 SE5       29.93R FOG
RED WING       FOG       68  66  94 E5        29.90S VSB 1/2
STANTON        FOG       67  65  94 CALM      29.89S VSB 1/2
DODGE CENTER   PTCLDY    66  64  94 SE3       29.92S FOG
WINONA         FOG       70  68  94 CALM      29.91S VSB 1/2
AUSTIN         CLEAR     68  66  94 CALM      29.91S FOG
PRESTON        CLOUDY    66  65  95 S6        29.93S FOG
$$
ABBREVIATIONS USED IN REMARKS
   TC - TEMPERATURES IN CELSIUS
  WCI - WIND CHILL INDEX
   HX - HEAT INDEX
  VSB - VISIBILITY
$$


USA.gov is the U.S. government's official web portal to all federal, state and local government web resources and services.